Startseite
Über Mich
AHP4
Galerie
Sehschlangen
Tourenbuch
Bookmarks
Elektronik
Bewertung
Geschichten
[Tagesmessung] [Jahreswerte] [Information]

Messwerte vom 01.01.2022

Die letzten Messwerte von 23:58:46 Uhr:
KategorieMesswert
Temperatur [°C]8
Luftdruck [mBar]1003
Sonneneinstrahlung0
Wind [km/h]2 aus Südost
Niederschlag [l/m²]0
rel.Luftfeucht.96.6%
CO2 [ppm]943

Diagramme
Messwerte vom 01.01.2022
Tagesaggregation
KategorieMinimumMaximumSchnittSumme
Temperatur [°C]81311.5021
Luftdruck [mBar]100210081005.5042
Sonneneinstrahlung21253.3271
Wind [km/h]18
rF [%]88.496.693.72
Niederschlag [l/m²]0
CO2 [ppm]4011011521.1
Einordnung alsVegetationstag

Messungen an benachbarten Tagen: Zur Jahresaggregation 2022
Tabelle aller Messwerte
UhrzeitTemperatur [°C]Luftdruck [mBar]SonneWind [km/h]RichtungRegen [l/m²]rF [%]CO2 [ppm]
00:01:48 12 1002 0 8 W 0 96.6 407
00:04:47 11 1002 0 5 W 0 96.6 407
00:07:49 11 1002 0 9 SO 0 96.6 404
00:10:48 11 1003 0 5 SW 0 96.6 404
00:13:46 11 1002 0 8 W 0 96.6 407
00:16:45 11 1003 0 5 N 0 96.6 407
00:19:48 11 1003 0 2 S 0 96.6 403
00:22:46 11 1003 0 4 NW 0 96.6 404
00:25:48 11 1003 0 7 NW 0 96.6 407
00:28:50 11 1003 0 11 NW 0 96.6 404
00:31:50 11 1002 0 8 NW 0 96.6 407
00:34:46 11 1003 0 8 W 0 96.6 407
00:37:47 11 1003 0 10 S 0 96.6 401
00:40:49 12 1003 0 15 W 0 96.6 406
00:43:48 12 1003 0 10 NW 0 96.6 406
00:46:46 12 1003 0 10 W 0 96.6 407
00:49:47 11 1003 0 5 SO 0 96.6 403
00:52:47 11 1003 0 13 N 0 96.6 407
00:55:48 11 1003 0 12 W 0 96.6 404
00:58:49 11 1002 0 10 W 0 96.6 406
01:01:48 11 1003 0 12 SW 0 96.6 407
01:04:46 11 1003 0 4 W 0 96.6 407
01:07:47 11 1003 0 4 W 0 96.6 404
01:10:47 11 1003 0 2 NW 0 96.6 404
01:13:46 11 1003 0 5 W 0 96.6 406
01:16:46 11 1003 0 6 SW 0 96.6 404
01:19:47 11 1003 0 12 SW 0 96.6 407
01:22:49 11 1003 0 8 SW 0 96.6 406
01:25:48 11 1003 0 7 NW 0 96.6 407
01:28:47 11 1003 0 16 S 0 96.6 407
01:31:47 11 1003 0 5 SW 0 96.6 407
01:34:47 11 1003 0 9 W 0 96.6 407
01:37:47 11 1003 0 4 SW 0 96.6 404
01:40:48 12 1003 0 11 SW 0 96.6 404
01:43:46 12 1003 0 7 W 0 96.6 404
01:46:48 12 1003 0 12 W 0 96.6 404
01:49:46 12 1003 0 6 W 0 96.6 406
01:52:48 12 1003 0 7 W 0 96.6 406
01:55:46 11 1003 0 9 W 0 96.6 406
01:58:45 11 1003 0 9 W 0 96.6 406
02:01:47 11 1003 0 10 W 0 96.6 407
02:04:48 11 1003 0 12 SW 0 96.6 406
02:07:48 11 1004 0 10 SW 0 96.6 406
02:10:47 11 1003 0 7 N 0 96.6 407
02:13:48 11 1003 0 4 NW 0 96.6 406
02:16:48 11 1004 0 4 NW 0 96.6 407
02:19:48 11 1003 0 9 SW 0 96.6 404
02:22:49 11 1005 0 8 W 0 96.6 404
02:25:47 11 1004 0 9 W 0 96.6 401
02:28:49 11 1004 0 10 W 0 96.6 407
02:31:49 11 1003 0 11 SW 0 96.6 407
02:34:48 11 1004 0 8 SW 0 96.6 407
02:37:46 11 1004 0 2 W 0 96.6 407
02:40:49 11 1004 0 11 SW 0 96.6 406
02:43:48 11 1004 0 7 NW 0 96.6 406
02:46:47 11 1004 0 6 SO 0 96.6 404
02:49:49 11 1005 0 8 SW 0 96.6 407
02:52:47 11 1004 0 9 W 0 96.6 407
02:55:49 11 1004 0 6 SW 0 96.6 405
02:58:45 11 1004 0 5 SW 0 96.6 404
03:01:47 12 1005 0 9 SW 0 96.6 406
03:04:49 12 1004 0 6 SW 0 96.6 407
03:07:47 11 1004 0 10 SW 0 96.6 406
03:10:48 12 1004 0 8 S 0 96.6 403
03:13:48 12 1004 0 9 W 0 96.6 406
03:16:47 12 1004 0 3 W 0 96.6 404
03:19:47 12 1004 0 18 0 96.6 404
03:22:49 12 1004 0 3 SW 0 96.6 404
03:25:47 12 1004 0 4 NW 0 96.6 404
03:28:46 12 1004 0 7 NW 0 96.6 407
03:31:48 12 1005 0 4 S 0 96.6 406
03:34:48 12 1005 0 9 W 0 96.6 407
03:37:45 12 1005 0 4 S 0 96.6 407
03:40:48 12 1004 0 8 W 0 96.6 404
03:43:48 12 1005 0 3 NO 0 96.6 405
03:46:47 12 1005 0 2 SW 0 96.6 404
03:49:47 12 1005 0 3 S 0 96.6 407
03:52:45 12 1005 0 7 W 0 96.6 406
03:55:48 12 1004 0 2 NW 0 96.6 407
03:58:48 12 1005 0 6 NW 0 96.6 404
04:01:45 11 1004 0 5 SW 0 96.6 406
04:04:47 12 1005 0 7 W 0 96.6 406
04:07:47 12 1005 0 4 NW 0 96.6 403
04:10:47 12 1005 0 6 W 0 96.6 403
04:13:49 12 1005 0 10 NW 0 96.6 404
04:16:47 12 1005 0 9 SW 0 96.6 407
04:19:45 12 1005 0 4 W 0 96.6 406
04:22:47 12 1005 0 1 SO 0 96.6 408
04:25:48 12 1005 0 7 S 0 96.6 408
04:28:45 12 1004 0 1 S 0 96.6 406
04:31:48 12 1005 0 6 W 0 96.6 405
04:34:46 12 1005 0 0 SO 0 96.6 404
04:37:50 12 1005 0 2 NW 0 96.6 407
04:40:49 12 1005 0 10 NW 0 96.6 405
04:43:49 12 1005 0 7 W 0 96.6 405
04:46:45 12 1005 0 1 N 0 96.6 404
04:49:48 12 1004 0 3 SO 0 96.6 407
04:52:46 12 1005 0 3 SW 0 96.6 407
04:55:46 12 1005 0 5 SW 0 96.6 407
04:58:46 12 1004 0 3 S 0 96.6 407
05:01:48 12 1005 0 3 SW 0 96.6 407
05:04:48 12 1005 0 8 SW 0 96.6 404
05:07:49 12 1005 0 0 NW 0 96.6 404
05:10:47 12 1005 0 14 W 0 96.6 404
05:13:48 12 1005 0 7 NW 0 96.6 407
05:16:46 12 1005 0 5 W 0 96.6 404
05:19:46 12 1005 0 13 S 0 96.6 407
05:22:46 11 1005 0 6 S 0 96.6 407
05:25:47 11 1004 0 2 W 0 96.6 404
05:28:47 11 1005 0 8 W 0 96.6 404
05:31:45 11 1005 0 14 W 0 96.6 407
05:34:48 11 1005 0 9 SW 0 96.6 407
05:37:48 11 1006 0 7 SW 0 96.6 403
05:40:49 11 1005 0 6 SW 0 96.6 403
05:43:48 11 1005 0 2 N 0 96.6 404
05:46:49 11 1006 0 9 SW 0 96.6 404
05:49:46 11 1005 0 3 S 0 96.6 407
05:52:47 11 1005 0 5 SW 0 96.6 404
05:55:44 11 1006 0 1 W 0 96.6 406
05:58:47 11 1005 0 7 W 0 96.6 403
06:01:47 11 1005 0 5 NW 0 96.6 407
06:04:46 11 1006 0 7 W 0 96.6 407
06:07:47 11 1005 0 6 S 0 96.6 404
06:10:50 11 1005 0 6 SW 0 96.6 404
06:13:49 11 1006 0 5 SW 0 96.6 407
06:16:51 11 1005 0 10 NW 0 96.6 407
06:19:47 11 1006 0 7 SW 0 96.6 403
06:22:46 11 1005 0 6 W 0 96.6 407
06:25:49 11 1005 0 3 SW 0 96.6 405
06:28:46 11 1006 0 5 S 0 96.6 407
06:31:47 11 1006 0 1 NW 0 96.6 404
06:34:45 11 1005 0 3 W 0 96.6 406
06:37:45 11 1005 0 1 O 0 96.6 406
06:40:49 11 1006 0 2 NO 0 96.6 403
06:43:47 11 1005 0 5 S 0 96.6 406
06:46:47 11 1006 0 2 N 0 96.6 406
06:49:48 11 1006 0 1 NO 0 96.6 407
06:52:47 11 1006 0 2 SW 0 96.6 407
06:55:47 11 1005 0 2 SW 0 96.6 406
06:58:48 11 1006 0 4 SW 0 96.6 406
07:01:49 11 1006 0 2 SW 0 96.6 401
07:04:47 11 1005 0 8 SW 0 96.6 406
07:07:47 11 1006 0 5 SW 0 96.6 406
07:10:47 11 1006 0 1 SO 0 96.6 404
07:13:47 11 1006 0 2 SW 0 96.6 406
07:16:45 11 1005 0 5 S 0 96.6 407
07:19:49 11 1006 0 2 NW 0 96.6 405
07:22:48 11 1006 0 0 NO 0 96.6 406
07:25:47 11 1006 0 3 SW 0 96.6 406
07:28:46 11 1006 0 12 W 0 96.6 404
07:31:48 11 1006 0 2 NW 0 96.6 406
07:34:46 11 1006 0 4 W 0 96.6 407
07:37:45 12 1006 0 1 W 0 96.6 407
07:40:47 11 1006 0 2 W 0 96.6 406
07:43:48 11 1006 0 6 NW 0 96.6 403
07:46:46 11 1006 0 5 W 0 96.6 407
07:49:45 11 1006 0 2 O 0 96.6 404
07:52:45 11 1006 0 0 O 0 96.6 404
07:55:47 11 1006 0 4 S 0 96.6 406
07:58:48 11 1006 0 3 SW 0 96.6 406
08:01:47 11 1006 3 3 SW 0 96.6 406
08:04:46 11 1006 5 2 SO 0 96.6 404
08:07:49 11 1006 6 6 NO 0 96.6 404
08:10:46 11 1006 9 5 W 0 96.6 407
08:13:45 11 1006 16 1 W 0 96.6 404
08:16:49 11 1006 23 1 NW 0 96.6 407
08:19:52 11 1006 31 9 SW 0 96.6 404
08:22:49 11 1006 35 2 W 0 96.6 404
08:25:51 11 1006 40 6 SO 0 96.6 407
08:28:48 11 1006 45 2 SO 0 96.6 407
08:31:48 11 1006 60 1 NO 0 96.6 404
08:34:48 11 1006 52 1 SO 0 96.6 404
08:37:47 11 1006 52 5 S 0 96.6 402
08:40:47 11 1006 72 0 W 0 96.6 406
08:43:48 11 1006 91 1 O 0 96.6 404
08:46:48 11 1006 90 5 SW 0 96.6 404
08:49:49 11 1006 100 1 W 0 96.6 406
08:52:49 11 1006 102 4 SW 0 96.6 406
08:55:48 11 1006 105 2 SW 0 96.6 407
08:58:47 12 1006 115 5 S 0 96.6 406
09:01:49 12 1006 117 2 SW 0 96.6 403
09:04:48 12 1007 115 2 W 0 96.6 404
09:07:48 12 1006 112 3 S 0 96.6 406
09:10:50 12 1006 123 2 SW 0 96.6 404
09:13:49 12 1006 115 2 SO 0 96.6 404
09:16:48 12 1006 137 4 SW 0 96.6 403
09:19:48 12 1006 138 0 W 0 96.6 403
09:22:47 12 1006 139 0 W 0 96.6 406
09:25:49 12 1006 131 4 SW 0 96.6 404
09:28:47 12 1006 142 2 S 0 96.6 406
09:31:50 12 1007 157 6 SO 0 96.6 404
09:34:49 12 1007 168 1 W 0 96.6 404
09:37:48 12 1006 180 8 S 0 96.6 407
09:40:48 12 1007 176 1 S 0 96.6 404
09:43:48 12 1006 172 7 S 0 96.6 401
09:46:46 12 1006 166 3 S 0 96.6 407
09:49:49 12 1006 170 5 SW 0 96.6 406
09:52:48 12 1006 168 1 SW 0 96.6 403
09:55:49 12 1006 174 3 SW 0 96.6 406
09:58:49 12 1006 177 1 NO 0 96.6 403
10:01:47 12 1007 170 4 SO 0 96.6 407
10:04:47 12 1007 173 3 S 0 96.6 403
10:07:50 12 1006 170 2 SO 0 96.6 404
10:10:49 12 1006 165 1 SO 0 96.6 404
10:13:48 12 1007 165 2 NO 0 96.6 407
10:16:48 12 1006 165 9 W 0 96.6 407
10:19:48 12 1007 166 7 W 0 96.5 403
10:22:49 12 1007 168 8 NW 0 96.5 404
10:25:48 12 1007 162 11 SO 0 96.5 407
10:28:48 12 1007 178 1 SW 0 96.5 406
10:31:49 12 1007 178 0 SO 0 96.5 407
10:34:47 12 1007 175 9 W 0 96.4 407
10:37:47 12 1007 111 8 N 0 96.1 407
10:40:47 12 1007 111 3 S 0 95.9 407
10:43:48 12 1007 116 4 S 0 96 407
10:46:48 12 1008 186 2 W 0 96 407
10:49:50 12 1007 179 2 SO 0 96 407
10:52:48 12 1007 177 1 S 0 95.7 404
10:55:47 12 1008 172 4 SO 0 95.6 404
10:58:48 12 1008 182 0 S 0 95.1 404
11:01:48 12 1008 184 3 NW 0 95.1 403
11:04:48 12 1007 183 5 W 0 95.1 407
11:07:48 12 1008 185 4 W 0 95 404
11:10:47 12 1007 194 4 S 0 94.7 407
11:13:47 12 1008 197 5 SW 0 94.5 404
11:16:48 12 1007 193 2 N 0 94.1 407
11:19:48 12 1008 189 3 W 0 93.7 404
11:22:48 12 1007 181 2 SO 0 93.7 407
11:25:48 12 1008 196 0 SW 0 93.3 404
11:28:47 12 1008 203 3 S 0 93.3 407
11:31:50 13 1007 198 10 SW 0 93.4 404
11:34:48 13 1008 194 6 W 0 93.3 404
11:37:50 13 1007 198 5 W 0 92.9 407
11:40:49 13 1007 207 1 NO 0 92.6 407
11:43:50 13 1007 209 7 NW 0 92 404
11:46:48 13 1007 207 3 W 0 92 404
11:49:48 13 1008 208 4 S 0 91.8 404
11:52:48 13 1008 209 6 O 0 91.2 404
11:55:48 13 1008 207 2 NO 0 90.9 404
11:58:48 13 1008 208 1 SO 0 90.9 406
12:01:47 13 1008 210 3 SW 0 91.4 401
12:04:50 13 1008 210 4 S 0 90.9 407
12:07:48 13 1008 211 2 S 0 90.8 406
12:10:49 13 1008 208 1 NW 0 90.9 407
12:13:47 13 1007 212 3 W 0 90.4 407
12:16:47 13 1007 204 2 NO 0 90.4 407
12:19:47 13 1008 211 0 S 0 90.8 406
12:22:47 13 1007 208 4 W 0 90.9 407
12:25:49 13 1008 202 5 SW 0 90.5 406
12:28:48 13 1007 201 6 SW 0 90.5 407
12:31:48 13 1007 201 0 NO 0 89.9 407
12:34:48 13 1007 198 5 W 0 90.1 404
12:37:49 13 1007 196 1 NO 0 90.3 407
12:40:46 13 1008 192 0 S 0 90.1 403
12:43:47 13 1007 195 3 W 0 90.8 407
12:46:50 13 1007 197 7 SW 0 90.2 407
12:49:47 13 1006 200 2 W 0 90 407
12:52:48 13 1007 202 1 SO 0 89.6 406
12:55:49 13 1007 195 2 W 0 88.8 407
12:58:48 13 1007 190 1 SO 0 88.6 407
13:01:47 13 1006 203 1 S 0 88.8 407
13:04:49 13 1008 202 7 SW 0 88.9 403
13:07:49 13 1007 201 3 SO 0 89 404
13:10:51 13 1007 199 2 SW 0 89.6 406
13:13:47 13 1006 201 1 O 0 89.3 407
13:16:46 13 1007 201 0 S 0 89.7 406
13:19:48 13 1007 202 3 W 0 89.5 404
13:22:47 13 1006 205 3 W 0 89.3 407
13:25:48 13 1006 204 1 S 0 89.3 407
13:28:49 13 1006 203 3 SW 0 89.2 404
13:31:48 13 1007 205 2 0 89.5 403
13:34:49 13 1007 205 1 SW 0 89.5 404
13:37:50 13 1007 204 3 W 0 89.3 410
13:40:52 13 1006 203 7 SW 0 88.6 407
13:43:50 13 1006 203 5 SW 0 88.6 405
13:46:48 13 1006 201 2 S 0 88.8 406
13:49:49 13 1006 201 2 W 0 88.8 403
13:52:48 13 1006 189 3 S 0 89.3 416
13:55:48 13 1007 183 1 SO 0 89.2 421
13:58:48 13 1006 179 5 S 0 88.8 421
14:01:47 13 1006 190 0 S 0 88.8 427
14:04:47 13 1006 186 3 O 0 88.8 439
14:07:50 13 1006 183 0 SO 0 89 446
14:10:47 13 1006 180 1 S 0 89.3 460
14:13:49 13 1006 171 0 SO 0 89.6 460
14:16:48 13 1006 167 1 S 0 89.5 462
14:19:49 13 1006 162 4 SW 0 89.4 451
14:22:48 13 1006 166 3 SO 0 89.3 468
14:25:45 13 1006 167 3 S 0 89.3 471
14:28:48 13 1006 175 0 S 0 89.4 475
14:31:47 13 1006 172 2 S 0 89.7 483
14:34:47 13 1006 185 3 SW 0 89.5 488
14:37:48 13 1006 179 2 SW 0 89.7 491
14:40:52 13 1006 164 2 SO 0 89.5 492
14:43:47 13 1006 163 1 SW 0 89.5 494
14:46:48 13 1006 157 2 S 0 90 497
14:49:47 13 1006 163 6 S 0 90.1 498
14:52:49 13 1006 149 0 SW 0 90.3 503
14:55:48 13 1006 151 0 S 0 90.5 512
14:58:47 13 1006 149 2 O 0 90.5 517
15:01:48 13 1006 153 1 S 0 90.4 463
15:04:46 13 1006 156 0 S 0 90.4 407
15:07:47 13 1006 153 0 SO 0 90.5 442
15:10:49 13 1006 138 4 SO 0 90.6 482
15:13:48 13 1006 141 4 SO 0 90.6 495
15:16:47 13 1006 140 1 SW 0 90.8 489
15:19:49 13 1006 143 0 SO 0 90.7 489
15:22:49 13 1006 140 2 S 0 90.9 486
15:25:50 13 1006 137 3 SO 0 90.9 482
15:28:51 13 1006 133 1 SO 0 91.2 495
15:31:46 13 1006 132 3 S 0 91.3 503
15:34:48 13 1006 131 2 S 0 91.3 513
15:37:49 13 1006 119 3 S 0 91 512
15:40:47 13 1006 111 0 S 0 91 519
15:43:49 13 1006 105 2 SO 0 91.1 518
15:46:48 13 1006 101 1 S 0 90.8 521
15:49:47 13 1006 99 1 S 0 90.6 524
15:52:48 13 1006 91 1 SW 0 90.9 531
15:55:47 12 1006 81 2 SO 0 90.9 532
15:58:46 12 1006 73 3 S 0 91 530
16:01:48 12 1006 65 1 S 0 90.7 535
16:04:48 12 1006 64 3 S 0 90 544
16:07:48 12 1006 61 1 S 0 90.8 550
16:10:48 12 1006 59 4 S 0 90.6 548
16:13:48 12 1006 53 0 SO 0 90.6 547
16:16:48 12 1006 38 2 SW 0 90.6 550
16:19:48 12 1006 35 2 SO 0 90.8 550
16:22:48 12 1006 27 1 SO 0 90.4 556
16:25:48 12 1006 20 2 W 0 90.2 564
16:28:48 12 1006 14 1 S 0 90.1 565
16:31:48 12 1007 10 3 S 0 89.9 568
16:34:47 12 1006 6 2 S 0 89.7 574
16:37:47 12 1006 4 3 SO 0 89.8 575
16:40:49 12 1007 0 3 SW 0 89.6 580
16:43:48 12 1006 0 2 SO 0 89.7 583
16:46:47 12 1007 0 2 O 0 89.7 583
16:49:47 12 1006 0 2 S 0 89.8 583
16:52:46 12 1006 0 2 S 0 89.7 580
16:55:47 12 1006 0 2 S 0 89.8 586
16:58:48 12 1006 0 4 SO 0 90.1 591
17:01:49 12 1006 0 4 SO 0 90 588
17:04:46 12 1006 0 1 O 0 89.9 588
17:07:47 12 1006 0 4 S 0 90.2 588
17:10:46 12 1007 0 2 SW 0 90.1 587
17:13:47 12 1006 0 5 SO 0 90.1 589
17:16:46 12 1006 0 2 SW 0 89.7 583
17:19:49 12 1006 0 5 SO 0 89.7 590
17:22:46 12 1006 0 0 S 0 89.8 585
17:25:47 12 1006 0 0 SW 0 90.3 597
17:28:45 12 1006 0 2 W 0 90.5 596
17:31:47 12 1006 0 2 O 0 90.6 598
17:34:47 12 1006 0 2 W 0 90.5 602
17:37:47 12 1006 0 5 SW 0 90.4 597
17:40:48 12 1006 0 5 S 0 90.4 598
17:43:47 12 1006 0 2 S 0 90.5 588
17:46:45 12 1006 0 1 S 0 90.7 601
17:49:53 12 1006 0 2 SW 0 90.9 595
17:52:46 12 1006 0 1 S 0 91 597
17:55:46 12 1006 0 1 SO 0 91.1 607
17:58:47 12 1006 0 3 S 0 91.2 607
18:01:46 12 1006 0 2 S 0 91.2 600
18:04:47 12 1006 0 2 S 0 91.3 604
18:07:46 12 1006 0 3 S 0 91.6 606
18:10:48 12 1006 0 3 SO 0 91.8 615
18:13:46 12 1006 0 3 NW 0 91.3 620
18:16:46 12 1006 0 5 SO 0 91 620
18:19:47 12 1006 0 5 SW 0 91 659
18:22:48 12 1006 0 2 SO 0 90.8 659
18:25:49 12 1006 0 2 SO 0 90.7 661
18:28:47 12 1006 0 3 S 0 90.7 670
18:31:48 12 1006 0 4 SO 0 90.5 674
18:34:47 12 1006 0 3 O 0 90.4 682
18:37:47 12 1006 0 1 SO 0 90.3 690
18:40:49 12 1006 0 1 S 0 90.4 702
18:43:46 12 1006 0 5 S 0 90.3 705
18:46:47 12 1006 0 2 S 0 90 705
18:49:48 12 1006 0 4 O 0 90 703
18:52:50 12 1006 0 1 S 0 89.8 700
18:55:47 12 1006 0 1 SO 0 89.7 703
18:58:48 12 1006 0 2 O 0 89.7 702
19:01:48 12 1006 0 3 S 0 89.9 708
19:04:46 11 1006 0 1 S 0 89.9 699
19:07:46 11 1006 0 3 S 0 90 710
19:10:48 11 1006 0 4 W 0 90.1 695
19:13:48 11 1006 0 6 S 0 90.1 695
19:16:48 11 1006 0 2 S 0 90.3 693
19:19:47 11 1006 0 2 SW 0 90.5 691
19:22:48 11 1006 0 2 W 0 90.5 694
19:25:48 11 1006 0 7 S 0 90.3 697
19:28:48 11 1006 0 5 O 0 90 702
19:31:47 11 1006 0 3 SW 0 89.8 700
19:34:48 11 1006 0 4 S 0 89.7 697
19:37:47 11 1006 0 5 SO 0 89.6 699
19:40:49 11 1006 0 8 SO 0 89.2 708
19:43:48 11 1006 0 2 S 0 88.9 714
19:46:45 11 1006 0 8 S 0 88.8 714
19:49:47 11 1006 0 3 S 0 88.8 723
19:52:47 11 1006 0 5 W 0 88.9 714
19:55:47 11 1006 0 4 S 0 88.7 709
19:58:48 11 1006 0 6 SW 0 88.5 713
20:01:48 11 1006 0 5 SW 0 88.5 713
20:04:47 11 1006 0 5 S 0 88.4 720
20:07:49 11 1006 0 5 SW 0 88.5 726
20:10:48 11 1006 0 4 SW 0 88.5 736
20:13:48 11 1006 0 6 S 0 88.8 727
20:16:50 11 1006 0 14 SW 0 89 731
20:19:49 11 1006 0 11 SO 0 89 722
20:22:49 11 1006 0 4 W 0 89 724
20:25:51 11 1006 0 3 SO 0 89.2 726
20:28:48 11 1006 0 7 SO 0 89.4 732
20:31:48 11 1006 0 5 S 0 89.4 735
20:34:48 11 1006 0 3 S 0 89.4 735
20:37:48 11 1006 0 4 SO 0 89.6 738
20:40:49 11 1006 0 3 NW 0 89.7 746
20:43:47 11 1006 0 3 NO 0 89.7 747
20:46:49 11 1006 0 6 S 0 89.8 749
20:49:46 11 1005 0 3 O 0 89.9 749
20:52:48 10 1006 0 1 S 0 90.2 752
20:55:47 10 1006 0 2 S 0 90.3 753
20:58:46 10 1006 0 0 S 0 90.6 762
21:01:48 10 1006 0 0 SO 0 90.9 761
21:04:49 10 1006 0 0 SO 0 91 762
21:07:50 10 1006 0 0 NW 0 91.1 768
21:10:45 10 1006 0 0 S 0 91.2 776
21:13:47 10 1005 0 0 SO 0 91.4 781
21:16:47 10 1006 0 0 SO 0 91.7 779
21:19:48 10 1006 0 0 SO 0 91.8 782
21:22:48 10 1005 0 3 S 0 92 781
21:25:46 10 1005 0 0 O 0 92.4 785
21:28:45 10 1006 0 0 O 0 92.6 787
21:31:46 10 1006 0 0 NW 0 92.9 793
21:34:46 10 1006 0 2 SO 0 93.2 791
21:37:45 10 1005 0 2 S 0 93.5 775
21:40:46 10 1005 0 3 S 0 93.8 776
21:43:46 10 1006 0 5 S 0 94 776
21:46:48 10 1005 0 1 SO 0 94 776
21:49:47 10 1005 0 3 SO 0 93.7 769
21:52:49 10 1005 0 2 SO 0 93.5 770
21:55:43 10 1005 0 1 S 0 93.3 774
21:58:47 10 1005 0 0 O 0 93.2 780
22:01:48 10 1005 0 2 S 0 93.2 782
22:04:49 9 1005 0 0 O 0 93.3 779
22:07:46 9 1005 0 1 SO 0 93.4 782
22:10:47 9 1006 0 0 O 0 93.8 772
22:13:47 9 1005 0 2 SO 0 94 766
22:16:49 9 1005 0 0 SO 0 94 763
22:19:48 9 1005 0 0 SO 0 94.1 758
22:22:47 9 1005 0 0 SO 0 94.3 762
22:25:47 9 1006 0 0 SO 0 94.5 761
22:28:47 9 1005 0 1 SO 0 94.6 764
22:31:47 9 1005 0 0 SO 0 94.9 751
22:34:48 9 1005 0 0 O 0 95.2 999
22:37:48 9 1005 0 0 O 0 95.6 998
22:40:48 9 1005 0 3 SO 0 95.9 1011
22:43:47 9 1004 0 2 SO 0 96.2 1001
22:46:49 9 1004 0 1 SO 0 96.2 1004
22:49:48 9 1004 0 2 SO 0 96.6 981
22:52:46 9 1004 0 3 S 0 96.6 989
22:55:46 9 1005 0 0 SO 0 96.6 971
22:58:49 9 1005 0 2 SO 0 96.6 887
23:01:49 9 1003 0 2 SO 0 96.6 858
23:04:47 9 1005 0 0 SO 0 96.6 874
23:07:48 9 1004 0 0 SO 0 96.6 902
23:10:47 9 1005 0 5 SO 0 96.6 937
23:13:46 9 1004 0 0 S 0 96.5 962
23:16:48 9 1005 0 1 SO 0 96.1 978
23:19:47 9 1004 0 1 SO 0 95.8 973
23:22:47 9 1004 0 5 SO 0 95.7 968
23:25:47 9 1003 0 4 SO 0 95.9 958
23:28:48 9 1004 0 3 SO 0 96.2 964
23:31:47 9 1004 0 4 SW 0 96.4 967
23:34:49 9 1004 0 4 SO 0 96.6 978
23:37:47 9 1004 0 3 SO 0 96.6 974
23:40:48 9 1003 0 5 S 0 96.6 964
23:43:47 9 1004 0 3 SO 0 96.6 963
23:46:48 9 1004 0 3 SO 0 96.6 960
23:49:47 9 1003 0 2 SO 0 96.6 975
23:52:48 9 1003 0 2 S 0 96.6 963
23:55:49 8 1002 0 2 SW 0 96.6 960
23:58:46 8 1003 0 2 SO 0 96.6 943

Letzte Änderung : 22-Jul-2022
Copyright Jens Köhler, Wolfsburg, Obere Dorfstraße 10d